Track STARLINK-4086 now! 10-day predictions STARLINK-4086 is classified as:
1 52833U 22062D 22227.66667824 -.00007686 00000-0 -46550-3 0 9995 2 52833 53.2122 119.1289 0001513 72.8736 174.5739 15.08825545 9213